OpenBCM V1.07b12 (Linux)

Packet Radio Mailbox

DB0FHN

[JN59NK Nuernberg]

 Login: GUEST





  
S57NML > KEPLER   10.04.03 23:13l 107 Lines 5604 Bytes #999 (0) @ WW
BID : A43S50BOX00C
Read: DB0FHN GUEST
Subj: 2-line Amateur #03100
Path: DB0FHN<DB0RGB<OK0PPL<OK0NAG<9A0BBS<S50BOX
Sent: 030410/2018z @:S50BOX.SVN.EU [Ljubljana ] bcm1.42
From: S57NML @ S50BOX.SVN.EU  (Andrej)
To:   KEPLER @ WW
X-Info: Received from 194.249.0.199 by HTTP-frontend

AO-7                    
1 07530U 74089B   03098.69291131 -.00000029  00000-0  10000-3 0  1746
2 07530 101.7487 145.9979 0012087 343.8596  16.2090 12.53565120299340
AO-10                   
1 14129U 83058B   03091.17918933 -.00000024  00000-0  10000-3 0  9244
2 14129  26.0433 157.4551 6010823 340.2144   4.1663  2.05867447120920
UO-11                   
1 14781U 84021B   03099.90976733  .00002064  00000-0  29210-3 0  1183
2 14781  98.1244  74.2519 0010672  52.0419 308.1752 14.78161679 23670
UO-14                   
1 20437U 90005B   03100.18311667  .00000193  00000-0  88254-4 0  2051
2 20437  98.2659 141.3590 0011829  52.8660 307.3599 14.31256632689730
AO-16                   
1 20439U 90005D   03098.72181774  .00000248  00000-0  10902-3 0  8773
2 20439  98.3068 151.9333 0011927  63.3505 296.8910 14.31493743689569
DO-17                   
1 20440U 90005E   03098.70114712  .00000286  00000-0  12239-3 0  7429
2 20440  98.3273 155.9217 0012104  62.0654 298.1760 14.31773705689638
WO-18                   
1 20441U 90005F   03100.23746294  .00000246  00000-0  10781-3 0   540
2 20441  98.3261 156.5758 0012689  60.0718 300.1720 14.31575579689831
LO-19                   
1 20442U 90005G   03100.14020736  .00000260  00000-0  11287-3 0  9937
2 20442  98.3386 159.5962 0013018  57.9679 302.2765 14.31739526689878
FO-20                   
1 20480U 90013C   03098.89336518 -.00000006  00000-0  66181-4 0  4965
2 20480  99.0549  52.3861 0539471 252.1530 102.0045 12.83331317616843
RS-12/13                
1 21089U 91007A   03098.60772511  .00000093  00000-0  82063-4 0  5054
2 21089  82.9222 145.0056 0029766 146.6579 213.6458 13.74409777610528
UO-22                   
1 21575U 91050B   03099.49615077  .00000451  00000-0  15883-3 0  7698
2 21575  98.1462  89.1253 0007394 351.4497   8.6562 14.39194388615465
KO-23                   
1 22077U 92052B   03098.93479531 -.00000037  00000-0  10000-3 0  1714
2 22077  66.0856  22.3464 0015663 263.3629  96.5605 12.86410354500655
AO-27                   
1 22825U 93061C   03099.18783874  .00000223  00000-0  10415-3 0  5273
2 22825  98.2707 126.3467 0009299 108.8224 251.3966 14.28962330496961
IO-26                   
1 22826U 93061D   03100.12048358  .00000210  00000-0  98620-4 0  3316
2 22826  98.2703 128.3681 0009814 105.3627 254.8638 14.29187358497145
KO-25                   
1 22828U 93061F   03099.59882406  .00000191  00000-0  90523-4 0  4689
2 22828  98.2651 128.1369 0011053  88.8762 271.3687 14.29526337465274
POSAT                   
1 22829U 93061G   03099.59875094  .00000305  00000-0  13457-3 0  4941
2 22829  98.2650 128.7683 0010805  88.4704 271.7710 14.29796483497205
RS-15                   
1 23439U 94085A   03098.69507319 -.00000014  00000-0  79841-3 0  7038
2 23439  64.8175 322.0460 0146461 105.4853 256.2287 11.27548643341134
FO-29                   
1 24278U 96046B   03098.94547560  .00000048  00000-0  81654-4 0  5882
2 24278  98.5440 243.4765 0351521  88.4945 275.6422 13.52878218327983
TO-31                   
1 25396U 98043C   03099.22955788 -.00000043  00000-0  00000+0 0  8385
2 25396  98.6167 175.3368 0002577   9.1913 350.9314 14.23527465246591
GO-32                   
1 25397U 98043D   03098.91917186  .00000116  00000-0  70900-4 0  1824
2 25397  98.6140 173.8526 0001762  35.9488 324.1808 14.22972098246519
SO-33                   
1 25509U 98061B   03098.67673017  .00000434  00000-0  76637-4 0  8197
2 25509  31.4300 235.8258 0357249  11.6546 349.2110 14.27478879232330
PO-34                   
1 25520U 98064B   03098.66852091  .00003616  00000-0  18289-3 0  6576
2 25520  28.4600 256.7564 0006841 171.2704 188.7886 15.14155566245031
ISS (ZARYA)             
1 25544U 98067A   03100.17109874  .00021803  00000-0  28168-3 0  8756
2 25544  51.6356   1.8359 0004257  44.5419 109.6993 15.58876865250394
UO-36                   
1 25693U 99021A   03099.94504256  .00000338  00000-0  68120-4 0  8626
2 25693  64.5600 216.5898 0024969 313.5343  46.3685 14.76446997213699
OO-38                   
1 26063U 00004C   03098.69419595  .00000290  00000-0  12014-3 0  7607
2 26063 100.2027 162.1611 0037067 147.8998 212.4448 14.35504803167448
SO-41                   
1 26545U 00057A   03098.90456524  .00001532  00000-0  22152-3 0  4361
2 26545  64.5582 240.2733 0048349 230.8981 128.7812 14.79117696136521
MO-46                   
1 26548U 00057D   03098.44517955  .00002345  00000-0  31269-3 0  4394
2 26548  64.5569 234.0261 0041698 231.0655 128.6716 14.81447001136618
SO-42                   
1 26549U 00057E   03098.90853903  .00001817  00000-0  26471-3 0  7308
2 26549  64.5525 244.6284 0052843 230.4065 129.2354 14.78049037136433
AO-40                   
1 26609U 00072B   03093.12981620 -.00000366  00000-0  10000-3 0  3237
2 26609   8.4077  56.1468 7953400 160.1620 273.2516  1.25596418 11138
NO-44                   
1 26931U 01043C   03098.93354376  .00000295  00000-0  14865-3 0  4593
2 26931  67.0466 128.5269 0005726 273.0260  87.0188 14.29145213 79409
NO-45                   
1 26932U 01043D   03098.90556949  .00000170  00000-0  99209-4 0  4432
2 26932  67.0537 128.2923 0004042 259.4348 100.6302 14.29315632 79424
AO-49                   
1 27605U 02058A   03098.92304349  .00001080  00000-0  19362-3 0  1039
2 27605  64.5495  47.3594 0034869  91.0543 269.4537 14.71454448 16071
SO-50                   
1 27607U 02058C   03098.96624382  .00001670  00000-0  29663-3 0   980
2 27607  64.5488  48.0148 0036185  87.2005 273.3224 14.70023390 16064


73's de Andrej S57NML
TX 10/4/2003   03_100
 


Read previous mail | Read next mail


 16.09.2025 07:27:17lGo back Go up